When you browse on this site, cookies collect data to enhance your experience and personalize the content and advertising you see.
Visit our Privacy Policy to learn more. By continuing to use the site, you agree to this use of cookies and data.
  • In Hungary
  • List of Countries
  • For 7 days
  • Water Temperature
  • Weather Map
  • News
  • Weather Widgets
  • user-avatar
    Login

    Hourly Weather Miszory

    Today, 20 September, Friday

    Time Temperature Precipitation Wind Pressure Humidity
    00:00 +5°C° 0 mm 3 mps 761 mmHg 87%
    01:00 +5°C° 0 mm 3 mps 762 mmHg 88%
    02:00 +5°C° 0 mm 3 mps 762 mmHg 88%
    03:00 +5°C° 0 mm 3 mps 762 mmHg 89%
    04:00 +5°C° 0 mm 3 mps 762 mmHg 89%
    05:00 +5°C° 0 mm 3 mps 762 mmHg 87%
    06:00 +7°C° 0 mm 3 mps 761 mmHg 85%
    07:00 +7°C° 0 mm 3 mps 761 mmHg 83%
    08:00 +9°C° 0 mm 3 mps 762 mmHg 75%
    09:00 +11°C° 0 mm 3 mps 762 mmHg 67%
    10:00 +12°C° 0 mm 3 mps 762 mmHg 59%
    11:00 +13°C° 0 mm 4 mps 762 mmHg 54%
    12:00 +14°C° 0 mm 4 mps 761 mmHg 49%
    13:00 +14°C° 0 mm 4 mps 761 mmHg 44%
    14:00 +14°C° 0 mm 4 mps 761 mmHg 46%
    15:00 +14°C° 0 mm 4 mps 761 mmHg 47%
    16:00 +14°C° 0 mm 3 mps 760 mmHg 48%
    17:00 +13°C° 0 mm 3 mps 761 mmHg 52%
    18:00 +12°C° 0 mm 3 mps 761 mmHg 56%
    19:00 +11°C° 0 mm 3 mps 761 mmHg 61%
    20:00 +11°C° 0 mm 3 mps 761 mmHg 63%
    21:00 +11°C° 0 mm 3 mps 760 mmHg 65%
    22:00 +11°C° 0 mm 3 mps 760 mmHg 67%
    23:00 +11°C° 0 mm 4 mps 760 mmHg 70%

    Tomorrow, 21 September, Saturday

    Time Temperature Precipitation Wind Pressure Humidity
    00:00 +11°C° 0 mm 4 mps 760 mmHg 72%
    01:00 +11°C° 0 mm 4 mps 760 mmHg 75%
    02:00 +11°C° 0 mm 4 mps 760 mmHg 80%
    03:00 +10°C° 0 mm 4 mps 760 mmHg 84%
    04:00 +8°C° 0 mm 4 mps 759 mmHg 88%
    05:00 +10°C° 0 mm 4 mps 759 mmHg 87%
    06:00 +9°C° 0 mm 5 mps 759 mmHg 86%
    07:00 +9°C° 0 mm 5 mps 759 mmHg 84%
    08:00 +12°C° 0 mm 5 mps 759 mmHg 81%
    09:00 +13°C° 0 mm 5 mps 759 mmHg 77%
    10:00 +14°C° 0 mm 5 mps 759 mmHg 73%
    11:00 +15°C° 0 mm 5 mps 759 mmHg 72%
    12:00 +15°C° 0 mm 5 mps 759 mmHg 71%
    13:00 +16°C° 0 mm 5 mps 759 mmHg 70%
    14:00 +16°C° 0 mm 5 mps 759 mmHg 70%
    15:00 +17°C° 0 mm 4 mps 759 mmHg 70%
    16:00 +17°C° 0 mm 4 mps 759 mmHg 70%
    17:00 +14°C° 0 mm 3 mps 759 mmHg 75%
    18:00 +14°C° 0 mm 2 mps 759 mmHg 81%
    19:00 +12°C° 0 mm 1 mps 759 mmHg 87%
    20:00 +12°C° 0 mm 1 mps 759 mmHg 87%
    21:00 +12°C° 0 mm 1 mps 759 mmHg 88%
    22:00 +11°C° 0 mm 1 mps 759 mmHg 89%
    23:00 +11°C° 0 mm 1 mps 759 mmHg 90%

    Day after tomorrow, 22 September, Sunday

    Time Temperature Precipitation Wind Pressure Humidity
    00:00 +11°C° 0 mm 1 mps 759 mmHg 91%
    01:00 +10°C° 0 mm 2 mps 758 mmHg 91%
    02:00 +11°C° 0 mm 1 mps 758 mmHg 91%
    03:00 +11°C° 0 mm 1 mps 758 mmHg 92%
    04:00 +10°C° 0 mm 1 mps 758 mmHg 92%
    05:00 +11°C° 0 mm 1 mps 758 mmHg 89%
    06:00 +12°C° 0 mm 2 mps 758 mmHg 86%
    07:00 +13°C° 0 mm 2 mps 758 mmHg 83%
    08:00 +15°C° 0 mm 2 mps 758 mmHg 75%
    09:00 +17°C° 0 mm 2 mps 758 mmHg 66%
    10:00 +19°C° 0 mm 2 mps 758 mmHg 58%
    11:00 +20°C° 0 mm 2 mps 757 mmHg 53%
    12:00 +21°C° 0 mm 2 mps 757 mmHg 49%
    13:00 +23°C° 0 mm 2 mps 757 mmHg 44%
    14:00 +23°C° 0 mm 2 mps 756 mmHg 45%
    15:00 +23°C° 0 mm 1 mps 756 mmHg 46%
    16:00 +23°C° 0 mm 1 mps 755 mmHg 48%
    17:00 +21°C° 0 mm 1 mps 755 mmHg 51%
    18:00 +19°C° 0 mm 1 mps 755 mmHg 54%
    19:00 +16°C° 0 mm 1 mps 755 mmHg 58%
    20:00 +15°C° 0 mm 1 mps 755 mmHg 59%
    21:00 +15°C° 0 mm 1 mps 755 mmHg 61%
    22:00 +14°C° 0 mm 1 mps 755 mmHg 63%
    23:00 +14°C° 0 mm 2 mps 754 mmHg 65%

    23 September, Monday

    Time Temperature Precipitation Wind Pressure Humidity
    00:00 +13°C° 0 mm 2 mps 754 mmHg 67%
    01:00 +13°C° 0 mm 2 mps 754 mmHg 70%
    02:00 +13°C° 0 mm 2 mps 754 mmHg 70%
    03:00 +11°C° 0 mm 3 mps 753 mmHg 71%
    04:00 +11°C° 0 mm 3 mps 753 mmHg 72%
    05:00 +11°C° 0 mm 3 mps 753 mmHg 69%
    06:00 +12°C° 0 mm 3 mps 752 mmHg 67%
    07:00 +12°C° 0 mm 4 mps 752 mmHg 65%
    08:00 +14°C° 0 mm 4 mps 752 mmHg 59%
    09:00 +16°C° 0 mm 5 mps 752 mmHg 54%
    10:00 +19°C° 0 mm 5 mps 752 mmHg 49%
    11:00 +20°C° 0 mm 5 mps 751 mmHg 47%
    12:00 +20°C° 0 mm 5 mps 751 mmHg 45%
    13:00 +21°C° 0 mm 5 mps 751 mmHg 43%
    14:00 +21°C° 0 mm 5 mps 750 mmHg 47%
    15:00 +20°C° 0 mm 4 mps 750 mmHg 52%
    16:00 +20°C° 0 mm 4 mps 750 mmHg 57%
    17:00 +18°C° 0 mm 3 mps 750 mmHg 66%
    18:00 +16°C° 0 mm 3 mps 750 mmHg 76%
    19:00 +14°C° 0 mm 2 mps 750 mmHg 86%
    20:00 +13°C° 0 mm 2 mps 751 mmHg 88%
    21:00 +13°C° 0 mm 2 mps 751 mmHg 90%
    22:00 +12°C° 0 mm 2 mps 751 mmHg 92%
    23:00 +12°C° 0 mm 2 mps 751 mmHg 92%

    24 September, Tuesday

    Time Temperature Precipitation Wind Pressure Humidity
    00:00 +12°C° 0 mm 2 mps 751 mmHg 93%
    01:00 +12°C° 0 mm 2 mps 751 mmHg 93%
    02:00 +12°C° 0 mm 2 mps 751 mmHg 94%
    03:00 +12°C° 0 mm 2 mps 751 mmHg 94%
    04:00 +10°C° 0 mm 2 mps 751 mmHg 94%
    05:00 +12°C° 0 mm 2 mps 752 mmHg 92%
    06:00 +12°C° 0 mm 2 mps 752 mmHg 90%
    07:00 +13°C° 0 mm 2 mps 752 mmHg 88%
    08:00 +15°C° 0 mm 2 mps 752 mmHg 80%
    09:00 +16°C° 0 mm 2 mps 753 mmHg 71%
    10:00 +18°C° 0 mm 3 mps 753 mmHg 63%
    11:00 +19°C° 0 mm 3 mps 753 mmHg 59%
    12:00 +20°C° 0 mm 3 mps 753 mmHg 56%
    13:00 +21°C° 0 mm 3 mps 753 mmHg 52%
    14:00 +21°C° 0 mm 2 mps 753 mmHg 52%
    15:00 +21°C° 0 mm 2 mps 753 mmHg 53%
    16:00 +21°C° 0 mm 2 mps 753 mmHg 54%
    17:00 +19°C° 0 mm 2 mps 753 mmHg 60%
    18:00 +17°C° 0 mm 3 mps 753 mmHg 67%
    19:00 +16°C° 0 mm 3 mps 753 mmHg 73%
    20:00 +14°C° 0 mm 3 mps 753 mmHg 76%
    21:00 +13°C° 0 mm 3 mps 753 mmHg 78%
    22:00 +13°C° 0 mm 3 mps 753 mmHg 81%
    23:00 +12°C° 0 mm 3 mps 753 mmHg 81%

    25 September, Wednesday

    Time Temperature Precipitation Wind Pressure Humidity
    00:00 +12°C° 0 mm 3 mps 753 mmHg 82%
    01:00 +12°C° 0 mm 3 mps 753 mmHg 82%
    02:00 +11°C° 0 mm 3 mps 753 mmHg 82%
    03:00 +11°C° 0 mm 3 mps 753 mmHg 83%
    04:00 +11°C° 0 mm 3 mps 752 mmHg 83%
    05:00 +12°C° 0 mm 3 mps 752 mmHg 82%
    06:00 +12°C° 0 mm 3 mps 752 mmHg 81%
    07:00 +12°C° 0 mm 3 mps 752 mmHg 80%
    08:00 +14°C° 0 mm 4 mps 752 mmHg 75%
    09:00 +15°C° 0 mm 4 mps 752 mmHg 70%
    10:00 +18°C° 0 mm 4 mps 752 mmHg 64%
    11:00 +18°C° 0.2 mm 4 mps 751 mmHg 66%
    12:00 +18°C° 0.2 mm 4 mps 751 mmHg 67%
    13:00 +18°C° 0.2 mm 4 mps 750 mmHg 68%
    14:00 +18°C° 0.1 mm 3 mps 750 mmHg 69%
    15:00 +18°C° 0.1 mm 3 mps 750 mmHg 70%
    16:00 +18°C° 0.1 mm 2 mps 749 mmHg 71%
    17:00 +18°C° 0.1 mm 2 mps 749 mmHg 75%
    18:00 +17°C° 0.1 mm 2 mps 749 mmHg 78%
    19:00 +16°C° 0.1 mm 2 mps 749 mmHg 82%
    20:00 +16°C° 0 mm 2 mps 749 mmHg 81%
    21:00 +16°C° 0 mm 2 mps 749 mmHg 81%
    22:00 +16°C° 0 mm 3 mps 748 mmHg 80%
    23:00 +16°C° 0 mm 3 mps 748 mmHg 80%
    Show more